Miami, FL

3:40 PM EST on February 11, 2016 (GMT -0500)
Miami International

Weather History for KMIA - October, 2013

Change the Weather History Date:

Thursday, October 31, 2013

  Actual Average Record
Temperature  
Mean Temperature 81 °F 77 °F  
Max Temperature 86 °F 84 °F 91 °F (2002)
Min Temperature 75 °F 71 °F 55 °F (1938)
Degree Days  
Heating Degree Days 0 0  
Month to date heating degree days 0 0  
Since 1 July heating degree days 0 0  
Cooling Degree Days 16 12  
Month to date cooling degree days 492 460  
Year to date cooling degree days 4170 4072  
Growing Degree Days 30 (Base 50)    
Moisture  
Dew Point 68 °F    
Average Humidity 67    
Maximum Humidity 79    
Minimum Humidity 55    
Precipitation  
Precipitation 0.01 in 0.13 in 4.36 in (1994)
Month to date precipitation 6.87 6.33  
Year to date precipitation 60.02 56.59  
Snow  
Snow 0.00 in - - ()
Month to date snowfall 0.0  
Since 1 July snowfall 0.0  
Since 1 September snowfall 0.0  
Snow Depth 0.00 in    
Sea Level Pressure  
Sea Level Pressure 30.06 in    
Wind  
Wind Speed 10 mph (East)    
Max Wind Speed 18 mph    
Max Gust Speed 22 mph    
Visibility 10 miles    
Events      
T = Trace of Precipitation, MM = Missing Value Source: NWS Daily Summary

Daily Weather History Graph

Daily Weather History Graph

Search for Another Location

Airport or City:

Trip Planner

Search our weather history database for the weather conditions in past years. The results will help you decide how hot, cold, wet, or windy it might be!

Date:

Astronomy

Oct. 31, 2013 Rise Set
Actual Time 7:29 AM EDT 6:40 PM EDT
Civil Twilight 7:05 AM EDT 7:03 PM EDT
Nautical Twilight 6:38 AM EDT 7:30 PM EDT
Astronomical Twilight 6:11 AM EDT 7:57 PM EDT
Moon 4:33 AM EDT (10/31) 4:43 PM EDT (10/31)
Length of Visible Light 11h 58m
Length of Day
11h 11m
Waning Crescent, 10% of the Moon is Illuminated
Oct 31
Waning Crescent
Nov 3
New
Nov 10
First Quarter
Nov 17
Full
Nov 25
Last Quarter

Hourly Weather History & Observations

Time (EDT) Temp. Heat Index Dew Point Humidity Pressure Visibility Wind Dir Wind Speed Gust Speed Precip Events Conditions
12:53 AM 77.0 °F - 64.9 °F 66% 30.10 in 10.0 mi East 10.4 mph - N/A   Scattered Clouds
1:53 AM 77.0 °F - 66.0 °F 69% 30.09 in 10.0 mi East 10.4 mph - N/A   Partly Cloudy
2:53 AM 77.0 °F - 64.9 °F 66% 30.08 in 10.0 mi East 10.4 mph - N/A   Partly Cloudy
3:53 AM 75.9 °F - 64.9 °F 69% 30.07 in 10.0 mi East 6.9 mph - N/A   Scattered Clouds
4:53 AM 75.9 °F - 66.0 °F 71% 30.07 in 10.0 mi East 6.9 mph - N/A   Scattered Clouds
5:53 AM 75.0 °F - 66.0 °F 73% 30.08 in 10.0 mi East 5.8 mph - N/A   Scattered Clouds
6:53 AM 75.0 °F - 66.9 °F 76% 30.09 in 10.0 mi East 4.6 mph - N/A   Scattered Clouds
7:53 AM 75.9 °F - 68.0 °F 76% 30.10 in 10.0 mi East 6.9 mph - N/A   Scattered Clouds
8:53 AM 80.1 °F 82.7 °F 68.0 °F 67% 30.11 in 10.0 mi East 11.5 mph - N/A   Scattered Clouds
9:53 AM 82.9 °F 85.8 °F 68.0 °F 60% 30.11 in 10.0 mi East 11.5 mph - N/A   Scattered Clouds
10:53 AM 82.9 °F 86.5 °F 69.1 °F 63% 30.12 in 10.0 mi ESE 15.0 mph - N/A   Scattered Clouds
11:53 AM 84.9 °F 87.6 °F 66.9 °F 55% 30.12 in 10.0 mi East 12.7 mph - N/A   Scattered Clouds
12:53 PM 82.9 °F 85.4 °F 66.9 °F 58% 30.09 in 10.0 mi East 13.8 mph - N/A   Mostly Cloudy
1:53 PM 84.0 °F 87.0 °F 68.0 °F 58% 30.05 in 10.0 mi ESE 12.7 mph - N/A   Mostly Cloudy
2:53 PM 82.9 °F 85.8 °F 68.0 °F 60% 30.04 in 10.0 mi ESE 16.1 mph - N/A   Mostly Cloudy
3:53 PM 84.9 °F 88.8 °F 69.1 °F 59% 30.02 in 10.0 mi ESE 10.4 mph - N/A   Scattered Clouds
4:53 PM 84.0 °F 87.8 °F 69.1 °F 61% 30.01 in 10.0 mi ESE 11.5 mph - N/A   Scattered Clouds
5:53 PM 82.0 °F 85.5 °F 69.1 °F 65% 30.00 in 10.0 mi East 12.7 mph - N/A   Scattered Clouds
6:53 PM 80.1 °F 82.9 °F 69.1 °F 69% 30.02 in 10.0 mi East 10.4 mph - N/A   Scattered Clouds
7:53 PM 79.0 °F - 69.1 °F 72% 30.02 in 10.0 mi East 8.1 mph - N/A   Scattered Clouds
8:53 PM 79.0 °F - 70.0 °F 74% 30.03 in 10.0 mi ESE 8.1 mph - N/A   Scattered Clouds
9:53 PM 79.0 °F - 71.1 °F 77% 30.03 in 10.0 mi ESE 9.2 mph - N/A   Scattered Clouds
10:53 PM 78.1 °F - 71.1 °F 79% 30.03 in 10.0 mi ESE 5.8 mph - N/A   Scattered Clouds
11:53 PM 79.0 °F - 72.0 °F 79% 30.03 in 10.0 mi East 9.2 mph - N/A   Mostly Cloudy